User: anonymous   Login
Location: Brno
(49.2000°N, 16.6330°E)
Time: 14:58:00
(UTC+01:00)
Language:

Cosmos 1603 - Orbit

View from above orbital plane
View from above orbital plane
View from above satellite
View from above satellite

Ground track
Ground track

The orbit data is extracted from the following two-line orbital elements,

1 15333U 84106A   17019.58319958  .00000075  00000-0  64053-4 0  9994
2 15333  71.0272  43.5456 0017408  70.5572 289.7429 14.14055016667253
Epoch (UTC): 19 January 2017 13:59:48
Eccentricity: 0.0017408
inclination: 71.0272°
perigee height: 833 km
apogee height: 858 km
right ascension of ascending node: 43.5456°
argument of perigee: 70.5572°
revolutions per day: 14.14055016
mean anomaly at epoch: 289.7429°
orbit number at epoch: 66725

The dashed part of the orbit path shows where the satellite is in the earth's shadow,  

DLR